San Antonio, TX

12:34 PM CDT on July 22, 2017 (GMT -0500)
San Antonio International

Weather History for KSAT - October, 2014

Change the Weather History Date:

Monday, October 13, 2014

  Actual Average Record
Temperature  
Mean Temperature 71 °F 72 °F  
Max Temperature 82 °F 83 °F 97 °F (1991)
Min Temperature 59 °F 61 °F 38 °F (1977)
Degree Days  
Heating Degree Days 0 1  
Month to date heating degree days 0 2  
Since 1 July heating degree days 0 4  
Cooling Degree Days 6 8  
Month to date cooling degree days 193 116  
Year to date cooling degree days 3309 2950  
Growing Degree Days 23 (Base 50)    
Moisture  
Dew Point 56 °F    
Average Humidity 58    
Maximum Humidity 88    
Minimum Humidity 28    
Precipitation  
Precipitation 0.01 in 0.15 in 1.64 in (1937)
Month to date precipitation 0.62 1.70  
Year to date precipitation 18.46 25.67  
Snow  
Snow 0.00 in - - ()
Month to date snowfall 0.0  
Since 1 July snowfall 0.0  
Since 1 September snowfall 0.0  
Snow Depth 0.00 in    
Sea Level Pressure  
Sea Level Pressure 29.82 in    
Wind  
Wind Speed 13 mph (West)    
Max Wind Speed 29 mph    
Max Gust Speed 36 mph    
Visibility 10 miles    
Events      
T = Trace of Precipitation, MM = Missing Value Source: NWS Daily Summary

Daily Weather History Graph

Daily Weather History Graph

Search for Another Location

Airport or City:

Trip Planner

Search our weather history database for the weather conditions in past years. The results will help you decide how hot, cold, wet, or windy it might be!

Date:

Astronomy

Oct. 13, 2014 Rise Set
Actual Time 7:34 AM CDT 7:05 PM CDT
Civil Twilight 7:10 AM CDT 7:29 PM CDT
Nautical Twilight 6:42 AM CDT 7:57 PM CDT
Astronomical Twilight 6:14 AM CDT 8:24 PM CDT
Moon 11:31 PM CDT (10/13) 12:35 PM CDT (10/13)
Length of Visible Light 12h 19m
Length of Day
11h 31m
Waning Gibbous, 70% of the Moon is Illuminated
Oct 13
Waning Gibbous
Oct 15
Last Quarter
Oct 23
New
Oct 30
First Quarter
Nov 6
Full

Hourly Weather History & Observations

Time (CDT) Temp. Dew Point Humidity Pressure Visibility Wind Dir Wind Speed Gust Speed Precip Events Conditions
12:51 AM 77.0 °F 73.0 °F 88% 29.70 in 10.0 mi SSE 15.0 mph - N/A   Mostly Cloudy
1:51 AM 75.9 °F 72.0 °F 87% 29.70 in 10.0 mi South 11.5 mph - N/A   Mostly Cloudy
2:48 AM 75.2 °F 71.6 °F 89% 29.74 in 10.0 mi South 13.8 mph - N/A   Overcast
2:51 AM 75.9 °F 71.1 °F 85% 29.69 in 10.0 mi South 11.5 mph - N/A   Overcast
3:51 AM 75.9 °F 70.0 °F 82% 29.69 in 10.0 mi South 9.2 mph - N/A   Overcast
4:47 AM 75.2 °F 69.8 °F 83% 29.73 in 10.0 mi South 8.1 mph - N/A   Scattered Clouds
4:51 AM 73.9 °F 70.0 °F 87% 29.68 in 10.0 mi South 8.1 mph - N/A   Partly Cloudy
5:51 AM 73.9 °F 69.1 °F 85% 29.68 in 10.0 mi South 6.9 mph - N/A   Partly Cloudy
6:07 AM 75.0 °F 70.0 °F 84% 29.75 in 10.0 mi SW 8.1 mph - N/A   Mostly Cloudy
6:51 AM 73.9 °F 69.1 °F 85% 29.71 in 10.0 mi South 8.1 mph - N/A   Overcast
7:13 AM 73.9 °F 69.1 °F 85% 29.78 in 10.0 mi WSW 6.9 mph - N/A   Scattered Clouds
7:51 AM 75.0 °F 69.1 °F 82% 29.75 in 10.0 mi WSW 8.1 mph - N/A   Mostly Cloudy
8:40 AM 70.0 °F 60.1 °F 71% 29.85 in 10.0 mi NNW 23.0 mph 36.8 mph 0.01 in   Overcast
8:51 AM 69.1 °F 57.0 °F 65% 29.81 in 10.0 mi NNW 18.4 mph 25.3 mph 0.01 in   Overcast
9:33 AM 71.1 °F 55.0 °F 57% 29.86 in 10.0 mi NW 18.4 mph 26.5 mph 0.00 in   Mostly Cloudy
9:51 AM 72.0 °F 51.1 °F 48% 29.83 in 10.0 mi NW 20.7 mph 34.5 mph 0.00 in   Scattered Clouds
10:51 AM 73.9 °F 50.0 °F 43% 29.83 in 10.0 mi NNW 23.0 mph 31.1 mph N/A   Partly Cloudy
11:51 AM 75.9 °F 48.0 °F 37% 29.84 in 10.0 mi NW 23.0 mph 33.4 mph N/A   Clear
12:51 PM 78.1 °F 46.9 °F 33% 29.85 in 10.0 mi NW 20.7 mph 28.8 mph N/A   Clear
1:51 PM 80.1 °F 46.9 °F 31% 29.84 in 10.0 mi NW 21.9 mph 27.6 mph N/A   Clear
2:51 PM 81.0 °F 45.0 °F 28% 29.83 in 10.0 mi NNW 20.7 mph 26.5 mph N/A   Clear
3:51 PM 81.0 °F 45.0 °F 28% 29.83 in 10.0 mi NW 20.7 mph 27.6 mph N/A   Partly Cloudy
4:51 PM 80.1 °F 45.0 °F 29% 29.85 in 10.0 mi NNW 18.4 mph 28.8 mph N/A   Partly Cloudy
5:51 PM 77.0 °F 44.1 °F 31% 29.88 in 10.0 mi NNW 19.6 mph 28.8 mph N/A   Partly Cloudy
6:51 PM 73.9 °F 43.0 °F 33% 29.90 in 10.0 mi NNW 16.1 mph 26.5 mph N/A   Partly Cloudy
7:51 PM 71.1 °F 44.1 °F 38% 29.94 in 10.0 mi NNW 10.4 mph - N/A   Clear
8:51 PM 69.1 °F 44.1 °F 40% 29.99 in 10.0 mi WSW 4.6 mph - N/A   Clear
9:51 PM 64.9 °F 45.0 °F 48% 30.00 in 10.0 mi NW 6.9 mph - N/A   Clear
10:51 PM 64.9 °F 44.1 °F 47% 30.01 in 10.0 mi NW 4.6 mph - N/A   Clear
11:51 PM 62.1 °F 43.0 °F 50% 30.03 in 10.0 mi WNW 3.5 mph - N/A   Clear